NB0X-13 Weather Reports


time (UTC)temp
F
wind
direction
speed
knots
gust
knots
rain 1hr
in
rain 24hr
in
rain mn
in
humidity
%
barometer
mb
20260506032108 57 216 8.7 15.6 0.00 0.00 0.00 33 1013.4
20260506031138 57 230 7.0 18.2 0.00 0.00 0.00 34 1013.4
20260506030048 57 217 9.6 17.4 0.00 0.00 0.00 33 1013.4
20260506025038 57 218 9.6 19.1 0.00 0.00 0.00 33 1013.1
20260506024048 57 215 7.0 14.8 0.00 0.00 0.00 31 1013.0
20260506023018 57 222 7.8 18.2 0.00 0.00 0.00 31 1013.1
20260506022109 57 221 10.4 20.0 0.00 0.00 0.00 31 1013.0
20260506021119 57 221 10.4 17.4 0.00 0.00 0.00 31 1013.0
20260506020048 57 212 8.7 20.9 0.00 0.00 0.00 31 1012.9
20260506015039 57 217 9.6 19.1 0.00 0.00 0.00 32 1012.8
20260506014049 57 216 7.8 17.4 0.00 0.00 0.00 32 1012.6
20260506013019 57 221 10.4 22.6 0.00 0.00 0.00 32 1012.4
20260506012110 58 203 7.8 27.8 0.00 0.00 0.00 32 1012.3
20260506011100 58 230 9.6 19.1 0.00 0.00 0.00 33 1012.3
20260506010049 58 211 8.7 21.7 0.00 0.00 0.00 33 1012.2
20260506005040 58 218 9.6 15.6 0.00 0.00 0.00 33 1012.3
20260506004029 58 218 9.6 30.4 0.00 0.00 0.00 33 1012.4
20260506003019 58 216 8.7 20.9 0.00 0.00 0.00 34 1012.3
20260506002111 58 228 10.4 21.7 0.00 0.00 0.00 35 1012.3
20260506001101 58 215 10.4 22.6 0.00 0.00 0.00 36 1012.1
20260506000050 59 211 5.2 13.9 0.00 0.00 0.00 35 1011.9
20260505235041 59 221 11.3 22.6 0.00 0.00 0.00 35 1012.0
20260505234032 59 225 7.8 20.0 0.00 0.00 0.00 36 1012.2
20260505233021 59 220 10.4 23.5 0.00 0.00 0.00 38 1012.1
20260505232112 58 214 10.4 17.4 0.00 0.00 0.00 40 1012.1
20260505231102 58 226 7.8 15.6 0.00 0.00 0.00 45 1012.3
20260505230052 57 220 12.2 22.6 0.00 0.00 0.00 45 1012.3
20260505225042 57 216 11.3 22.6 0.00 0.00 0.00 46 1012.5
20260505224033 59 212 10.4 21.7 0.00 0.00 0.00 44 1012.5
20260505223023 59 218 9.6 21.7 0.00 0.00 0.00 45 1012.3
20260505222133 59 215 11.3 21.7 0.00 0.00 0.00 43 1012.2
20260505221103 59 224 10.4 23.5 0.00 0.00 0.00 43 1012.3
20260505220053 59 222 12.2 23.5 0.00 0.00 0.00 42 1012.4
20260505215044 59 220 9.6 18.2 0.00 0.00 0.00 42 1012.6
20260505214033 60 220 13.0 21.7 0.00 0.00 0.00 41 1012.5
20260505213023 60 220 12.2 23.5 0.00 0.00 0.00 43 1012.4
20260505212114 60 225 12.2 23.5 0.00 0.00 0.00 42 1013.0
20260505211104 59 234 12.2 22.6 0.00 0.00 0.00 43 1012.9
20260505210054 59 227 12.2 22.6 0.00 0.00 0.00 44 1013.1
20260505205044 60 230 14.8 25.2 0.00 0.00 0.00 43 1013.1
20260505204034 59 220 9.6 22.6 0.00 0.00 0.00 43 1013.3
20260505203024 60 209 12.2 31.3 0.00 0.00 0.00 43 1013.3
20260505202115 59 223 15.6 26.9 0.00 0.00 0.00 44 1013.4
20260505201105 58 221 10.4 22.6 0.00 0.00 0.00 45 1014.0
20260505200055 59 215 13.0 22.6 0.00 0.00 0.00 44 1013.7
20260505195045 60 222 12.2 23.5 0.00 0.00 0.00 43 1013.7
20260505194035 60 210 12.2 23.5 0.00 0.00 0.00 43 1013.9
20260505193025 60 224 12.2 22.6 0.00 0.00 0.00 45 1013.6
20260505192136 59 217 9.6 20.9 0.00 0.00 0.00 46 1013.6
20260505191106 59 221 9.6 24.3 0.00 0.00 0.00 45 1013.8
20260505190056 59 218 10.4 24.3 0.00 0.00 0.00 44 1013.9
20260505185106 60 220 9.6 24.3 0.00 0.00 0.00 43 1014.1
20260505184036 59 221 12.2 20.9 0.00 0.00 0.00 43 1014.0
20260505183046 59 226 15.6 21.7 0.00 0.00 0.00 42 1014.1
20260505182016 59 220 11.3 22.6 0.00 0.00 0.00 41 1013.8
20260505181106 59 222 13.0 22.6 0.00 0.00 0.00 41 1013.9
20260505180056 59 216 12.2 23.5 0.00 0.00 0.00 41 1013.7
20260505175107 58 216 8.7 20.0 0.00 0.00 0.00 41 1014.0
20260505174037 58 221 12.2 22.6 0.00 0.00 0.00 41 1014.1
20260505173027 57 208 13.0 18.2 0.00 0.00 0.00 42 1013.8
20260505172017 58 213 11.3 24.3 0.00 0.00 0.00 41 1013.8
20260505171128 59 194 15.6 17.4 0.00 0.00 0.00 39 1014.0
20260505170118 58 219 10.4 23.5 0.00 0.00 0.00 39 1013.8
20260505165048 58 219 11.3 20.0 0.00 0.00 0.00 40 1013.8
20260505164038 58 212 9.6 18.2 0.00 0.00 0.00 40 1014.1
20260505163027 58 220 9.6 20.9 0.00 0.00 0.00 40 1014.1
20260505162017 57 225 9.6 16.5 0.00 0.00 0.00 42 1014.0
20260505161108 58 218 12.2 21.7 0.00 0.00 0.00 40 1014.0
20260505153109 56 212 13.0 20.0 0.00 0.00 0.00 41 1013.8
20260505152019 56 221 10.4 24.3 0.00 0.00 0.00 40 1013.7
20260505151129 55 225 13.0 21.7 0.00 0.00 0.00 44 1013.5
20260505124041 56 214 11.3 20.0 0.00 0.00 0.00 36 1012.6
20260505123032 56 217 9.6 19.1 0.00 0.00 0.00 37 1012.4
20260505122022 56 235 7.8 20.0 0.00 0.00 0.00 37 1012.1
20260505121113 56 208 8.7 16.5 0.00 0.00 0.00 36 1012.2
20260505115053 56 224 9.6 17.4 0.00 0.00 0.00 36 1012.1
20260505114103 56 212 8.7 14.8 0.00 0.00 0.00 36 1012.0
20260505113032 56 212 9.6 17.4 0.00 0.00 0.00 37 1012.0
20260505112022 56 227 9.6 20.9 0.00 0.00 0.00 37 1011.9
20260505111113 56 232 8.7 24.3 0.00 0.00 0.00 37 1012.1
20260505102024 57 223 11.3 24.3 0.00 0.00 0.00 36 1011.8
20260505101115 57 212 13.0 24.3 0.00 0.00 0.00 36 1011.5
20260505100105 57 213 14.8 24.3 0.00 0.00 0.00 36 1011.9
20260505095055 57 215 13.9 27.8 0.00 0.00 0.00 36 1011.8
20260505094105 57 223 13.0 26.1 0.00 0.00 0.00 35 1011.8
20260505093035 57 221 13.0 27.8 0.00 0.00 0.00 36 1011.8
20260505092025 57 219 13.0 29.5 0.00 0.00 0.00 38 1011.7
20260505091116 57 225 12.2 20.0 0.00 0.00 0.00 38 1012.0
20260505090106 57 220 12.2 26.1 0.00 0.00 0.00 37 1012.1
20260505085117 57 208 9.6 17.4 0.00 0.00 0.00 37 1012.1
20260505084046 58 220 9.6 18.2 0.00 0.00 0.00 36 1012.5
20260505083036 58 225 7.8 18.2 0.00 0.00 0.00 35 1012.9
20260505082026 59 217 10.4 23.5 0.00 0.00 0.00 36 1013.1
20260505081016 58 213 7.8 15.6 0.00 0.00 0.00 37 1013.6
20260505080107 58 216 7.8 16.5 0.00 0.00 0.00 37 1013.9
20260505075057 58 230 5.2 18.2 0.00 0.00 0.00 36 1013.9
20260505074107 58 215 7.8 13.9 0.00 0.00 0.00 36 1014.0
20260505073037 58 221 9.6 15.6 0.00 0.00 0.00 35 1014.2
20260505072027 59 233 12.2 18.2 0.00 0.00 0.00 35 1014.1
20260505071017 59 223 13.0 21.7 0.00 0.00 0.00 34 1013.7
20260505070108 59 217 13.9 26.1 0.00 0.00 0.00 34 1013.4
20260505065058 59 219 13.0 23.5 0.00 0.00 0.00 31 1013.0
20260505064048 59 221 13.0 24.3 0.00 0.00 0.00 30 1012.9
20260505063058 60 226 11.3 21.7 0.00 0.00 0.00 29 1012.9
20260505062028 59 234 8.7 19.1 0.00 0.00 0.00 30 1013.4
20260505061017 59 223 9.6 18.2 0.00 0.00 0.00 31 1013.2
20260505060109 59 229 10.4 18.2 0.00 0.00 0.00 31 1013.4
20260505055059 59 225 8.7 18.2 0.00 0.00 0.00 31 1013.7
20260505054049 59 232 6.1 12.2 0.00 0.00 0.00 32 1014.1
20260505053059 59 230 7.8 13.9 0.00 0.00 0.00 31 1014.4
20260505052029 59 232 6.1 12.2 0.00 0.00 0.00 29 1014.6
20260505051018 61 239 7.8 13.0 0.00 0.00 0.00 27 1015.0
20260505050109 61 218 10.4 14.8 0.00 0.00 0.00 25 1015.1
20260505041039 62 205 7.8 12.2 0.00 0.00 0.00 24 1015.3
20260505040110 62 218 8.7 12.2 0.00 0.00 0.00 23 1015.2
20260505035101 62 224 7.8 13.0 0.00 0.00 0.00 24 1015.2
20260505034050 62 219 7.0 11.3 0.00 0.00 0.00 24 1015.1
20260505033040 62 220 7.0 12.2 0.00 0.00 0.00 24 1015.1